TimeEST,TemperatureF,Dew PointF,Humidity,Sea Level PressureIn,VisibilityMPH,Wind Direction,Wind SpeedMPH,Gust SpeedMPH,PrecipitationIn,Events,Conditions,WindDirDegrees,DateUTC
12:53 AM,37.0,30.0,76,30.01,10.0,South,8.1,-,N/A,,Overcast,170,2014-02-02 05:53:00
1:37 AM,37.9,32.0,79,29.96,10.0,South,10.4,-,N/A,,Scattered Clouds,180,2014-02-02 06:37:00
1:53 AM,37.9,33.1,83,29.96,10.0,South,11.5,-,N/A,,Partly Cloudy,180,2014-02-02 06:53:00
2:05 AM,39.9,33.1,77,29.95,10.0,South,11.5,-,N/A,,Mostly Cloudy,180,2014-02-02 07:05:00
2:40 AM,39.9,34.0,79,29.92,10.0,South,12.7,-,N/A,,Overcast,180,2014-02-02 07:40:00
2:53 AM,39.9,35.1,83,29.93,10.0,South,12.7,-,N/A,,Mostly Cloudy,190,2014-02-02 07:53:00
3:01 AM,39.9,35.1,83,29.91,10.0,South,12.7,-,N/A,,Partly Cloudy,190,2014-02-02 08:01:00
3:53 AM,39.0,35.1,86,29.90,10.0,South,8.1,-,N/A,,Clear,180,2014-02-02 08:53:00
4:53 AM,36.0,33.1,89,29.90,8.0,South,5.8,-,N/A,,Clear,170,2014-02-02 09:53:00
5:53 AM,34.0,30.9,89,29.90,6.0,SSW,3.5,-,N/A,,Clear,200,2014-02-02 10:53:00
6:53 AM,30.9,28.9,92,29.88,2.0,Calm,Calm,-,N/A,,Clear,0,2014-02-02 11:53:00
7:17 AM,30.9,28.0,89,29.87,1.8,Calm,Calm,-,N/A,,Partly Cloudy,0,2014-02-02 12:17:00
7:33 AM,30.9,28.9,92,29.88,2.0,Calm,Calm,-,N/A,,Mostly Cloudy,0,2014-02-02 12:33:00
7:53 AM,30.9,28.9,92,29.91,2.0,Calm,Calm,-,N/A,,Overcast,0,2014-02-02 12:53:00
8:06 AM,32.0,30.0,92,29.88,2.5,Calm,Calm,-,N/A,,Scattered Clouds,0,2014-02-02 13:06:00
8:14 AM,33.1,30.9,92,29.88,2.5,Calm,Calm,-,N/A,,Mostly Cloudy,0,2014-02-02 13:14:00
8:53 AM,37.0,34.0,89,29.91,2.5,SW,5.8,-,N/A,,Mostly Cloudy,220,2014-02-02 13:53:00
9:00 AM,36.0,34.0,93,29.89,2.5,SSW,4.6,-,N/A,,Clear,210,2014-02-02 14:00:00
9:12 AM,37.0,34.0,89,29.88,2.5,SSE,9.2,-,N/A,,Scattered Clouds,150,2014-02-02 14:12:00
9:23 AM,37.0,35.1,93,29.90,2.0,South,5.8,-,N/A,,Mostly Cloudy,170,2014-02-02 14:23:00
9:53 AM,39.0,36.0,89,29.92,2.0,SSE,6.9,-,N/A,,Overcast,160,2014-02-02 14:53:00
10:00 AM,39.0,35.1,86,29.90,5.0,SSE,6.9,-,N/A,,Overcast,160,2014-02-02 15:00:00
10:53 AM,42.1,36.0,79,29.91,8.0,SW,4.6,-,N/A,,Clear,220,2014-02-02 15:53:00
11:53 AM,45.0,36.0,71,29.91,10.0,Calm,Calm,-,N/A,,Overcast,0,2014-02-02 16:53:00
12:53 PM,45.0,36.0,71,29.91,10.0,ENE,4.6,-,N/A,,Overcast,70,2014-02-02 17:53:00
1:53 PM,44.1,37.0,76,29.92,5.0,WNW,3.5,-,0.03,Rain,Light Rain,290,2014-02-02 18:53:00
2:53 PM,44.1,37.0,76,29.91,10.0,WNW,3.5,-,0.01,Rain,Light Rain,300,2014-02-02 19:53:00
3:53 PM,43.0,37.0,80,29.94,10.0,NNW,5.8,-,0.00,,Overcast,330,2014-02-02 20:53:00
4:53 PM,42.1,35.1,76,29.96,10.0,NW,4.6,-,N/A,,Overcast,320,2014-02-02 21:53:00
5:53 PM,41.0,33.1,73,29.98,10.0,NNW,12.7,-,N/A,,Mostly Cloudy,330,2014-02-02 22:53:00
6:53 PM,39.9,32.0,73,30.02,10.0,NW,8.1,-,N/A,,Overcast,320,2014-02-02 23:53:00
7:53 PM,39.0,28.9,67,30.05,10.0,WNW,6.9,-,N/A,,Overcast,300,2014-02-03 00:53:00
8:53 PM,37.9,28.9,70,30.06,10.0,WNW,10.4,-,N/A,,Overcast,300,2014-02-03 01:53:00
9:53 PM,37.0,28.0,70,30.07,10.0,NW,4.6,-,N/A,,Mostly Cloudy,320,2014-02-03 02:53:00
10:53 PM,37.0,28.0,70,30.09,10.0,WNW,5.8,-,N/A,,Clear,300,2014-02-03 03:53:00
11:53 PM,36.0,28.0,73,30.09,10.0,NW,5.8,-,N/A,,Clear,320,2014-02-03 04:53:00